SOMP2 (42701 NORAD) Tracking and Keplerian Element Data

This shows tracking and keplerian element data for the satellite.

Feedback or suggestion? Click here.




ElementValue
Catalog42701
NameSOMP2
Epoch Orbit8472
Epoch Day312.47944786
Epoch Year2018
RAAN334.7468
Inclination51.6342
Eccentricity0.0005113
Argument of Perigee55.9351
Mean Anonmoly304.2136
Mean Motion15.80173785
Decay Rate0.00059301
L11 42701U 98067LJ 18312.47944786 .00059301 00000-0 31098-3 0 9990
L22 42701 051.6342 334.7468 0005113 055.9351 304.2136 15.80173785084725

Live tracking and technical data element details for SOMP2 (NORAD 42701). SOMP2 can be tracked NOW for your location showing map with azimuth and elevation plus other details from your city location.

Track the satellite on the map from your city or location and see movement details for azimuth, elevation, latitude, longitude, range, height, and movement on the map or in text.







IsCatalogInMostPopularTable: catalog: 42701, numindb: 131
Update: records affected: 1



GetName: 42701 SOMP2

Hit Count: updated at: Fri, 16 Nov 2018 05:25:03 GMT